Location: Mound City (historical)
(34.0564°N, 117.2656°W)
Time: 02:35:25
(UTC+00:00)

Cosmos 2333 Rocket - Pass Details

Date: 08 September 2024
Orbit: 840 x 862 km, 70.8° (Epoch: 10 October)

Event Time Altitude Azimuth Distance (km) Brightness Sun altitude
Rises 12:44:15 0° 334° (NNW) 3,430 5.2 -9.7°
Reaches altitude 10° 12:46:44 10° 331° (NNW) 2,487 4.5 -9.2°
Maximum altitude 12:52:21 61° 253° (WSW) 959 2.2 -8.1°
Drops below altitude 10° 12:57:54 10° 174° (S) 2,458 4.6 -7.0°
Sets 13:00:21 0° 170° (S) 3,386 5.3 -6.5°
